Terug naar catalogus

FENGYUN 1C DEB

ActiefSSO
NORAD 30404·DEBRIS·🇨🇳 China

Gelanceerd May 10, 1999 vanaf Taiyuan Satellite Launch Center

Loading…

Volgende Passages (komende 24 uur)

TLE

VersSource: Space-Track

Epoch: Sep 13, 2026, 04:33 UTC

1 30404U 99025ADT 26256.18959553  .00001030  00000-0  14116-2 0  9991
2 30404  99.8267 342.7407 0382316 194.0765 164.9462 13.34724580616974

Volg FENGYUN 1C DEB in realtime met AllMySat

Download on the App Store